Home > Weather > Ra'anana > Past weeks

Flag for Israel Weather for the Past 2 Weeks in Ra'anana, Israel

Now
75 °F

Clear.


Feels Like: 77 °F
Forecast: 67 / 72 °F
Wind: 3 mph from North

Location: Dov Airport

Current Time: May 4, 2016 at 1:58:04 AM

Latest Report: May 3, 2016 at 11:50 PM


Visibility: 10 mi

Pressure: 29.80 "Hg

Humidity: 39%

Dew Point: 48 °F

Location of Ra'ananaLocation

Historic Weather in Ra'anana — Graph

°F

Ra'anana Temperature Yesterday

Maximum temperature yesterday: 81 °F (at 4:50 PM)
Minimum temperature yesterday: 68 °F (at 5:50 AM)
Average temperature yesterday: 74 °F

High & Low Weather Summary for the Past Weeks

 TemperatureHumidityPressure
High95 °F (Apr 26, 10:50 AM)94% (Apr 23, 6:00 AM)30.04 "Hg (Apr 23, 6:00 AM)
Low61 °F (Apr 30, 6:00 AM)16% (Apr 26, 10:50 AM)29.56 "Hg (Apr 25, 5:00 AM)
Average73 °F66%29.87 "Hg
* Reported Apr 18 11:50 PM — May 3 11:50 PM, Ra'anana, Weather by CustomWeather, © 2016

Note: Actual official high and low records may vary slightly from our data, if they occured in-between our weather recording intervals... More about our weather records

Advertising

Ra'anana Weather History for the Previous 24 Hours

Scroll right to see more
 ConditionsComfort  
Time TempWeatherWind HumidityBarometerVisibility
11:50 PM
Tue, May 3
75 °FClear.3 mph39%29.80 "Hg10 mi
10:50 PM73 °FClear.3 mph50%29.80 "Hg10 mi
9:50 PM73 °FClear.6 mph74%29.80 "Hg10 mi
8:50 PM75 °FClear.8 mph61%29.77 "Hg10 mi
7:50 PM73 °FSunny.17 mph69%29.74 "Hg10 mi
6:50 PM75 °FSunny.21 mph61%29.74 "Hg10 mi
5:50 PM75 °FSunny.20 mph65%29.74 "Hg10 mi
4:50 PM81 °FSunny.15 mph45%29.74 "Hg10 mi
3:50 PM75 °FSunny.20 mph74%29.77 "Hg10 mi
2:50 PM75 °FSunny.17 mph74%29.80 "Hg10 mi
1:50 PM77 °FClear.15 mph65%29.80 "Hg6 mi
12:50 PM77 °FSunny.10 mph61%29.83 "Hg10 mi
11:50 AM77 °FSunny.7 mph61%29.83 "Hg10 mi
10:50 AM75 °FSunny.5 mph61%29.83 "Hg10 mi
9:50 AM77 °FSunny.2 mph42%29.83 "Hg10 mi
8:50 AM73 °FSunny.3 mph50%29.83 "Hg10 mi
7:50 AM70 °FSunny.5 mph64%29.86 "Hg10 mi
6:50 AM68 °FClear.2 mph73%29.86 "Hg10 mi
5:50 AM68 °FClear.2 mph73%29.86 "Hg10 mi
Weather by CustomWeather, © 2016

See weather overviewHow to use our weather pages